This is the latest recevied weather packets stored in our database for station/object K0SNA. If no packets are shown the sender has not sent any weather packets the latest 10 day(s).
| Time | Temp. | Humidity | Pressure | Rain* | Wind** | Luminosity | Snow |
|---|---|---|---|---|---|---|---|
| 1778015817 | 10° C | 41% | 1011.2 hPa | 0 mm | - | 119 W/m² | - |
| 1778015514 | 10° C | 40% | 1011 hPa | 0 mm | - | 122 W/m² | - |
| 1778015211 | 10° C | 40% | 1011.2 hPa | 0 mm | - | 172 W/m² | - |
| 1778014908 | 10° C | 39% | 1011.1 hPa | 0 mm | - | 245 W/m² | - |
| 1778014605 | 10° C | 40% | 1011.3 hPa | 0 mm | - | 270 W/m² | - |
| 1778014303 | 9.44° C | 40% | 1011.3 hPa | 0 mm | - | 183 W/m² | - |
| 1778013999 | 10° C | 39% | 1010.9 hPa | 0 mm | - | 141 W/m² | - |
| 1778013698 | 10° C | 40% | 1011.3 hPa | 0 mm | - | 222 W/m² | - |
| 1778013394 | 10° C | 40% | 1011.2 hPa | 0 mm | - | 211 W/m² | - |
| 1778013091 | 10° C | 40% | 1011.2 hPa | 0 mm | - | 258 W/m² | - |
| 1778012787 | 9.44° C | 40% | 1011.3 hPa | 0 mm | - | 373 W/m² | - |
| 1778012483 | 9.44° C | 40% | 1011.4 hPa | 0 mm | - | 223 W/m² | - |
| 1778012180 | 9.44° C | 40% | 1011.3 hPa | 0 mm | - | 182 W/m² | - |
| 1778011877 | 9.44° C | 40% | 1011.3 hPa | 0 mm | - | 116 W/m² | - |
| 1778011575 | 9.44° C | 41% | 1011.4 hPa | 0 mm | - | 150 W/m² | - |
| 1778011272 | 9.44° C | 41% | 1011.3 hPa | 0 mm | - | 237 W/m² | - |
| 1778010968 | 9.44° C | 40% | 1011.4 hPa | 0 mm | - | 439 W/m² | - |
| 1778010666 | 9.44° C | 40% | 1011.2 hPa | 0 mm | - | 143 W/m² | - |
| 1778010363 | 10.56° C | 39% | 1011.3 hPa | 0 mm | - | 196 W/m² | - |
| 1778010058 | 10° C | 39% | 1011.3 hPa | 0 mm | - | 464 W/m² | - |
| 1778009756 | 10° C | 39% | 1011.4 hPa | 0 mm | - | 383 W/m² | - |
| 1778009453 | 10° C | 39% | 1011.3 hPa | 0 mm | - | 358 W/m² | - |
| 1778009151 | 10° C | 39% | 1011.4 hPa | 0 mm | - | 243 W/m² | - |
| 1778008848 | 10° C | 40% | 1011.4 hPa | 0 mm | - | 295 W/m² | - |
| 1778008547 | 10° C | 40% | 1011.4 hPa | 0 mm | - | 360 W/m² | - |
* Rain latest hour (hover to see other rain measurements)
** Current wind speed in m/s (hover to see current wind gust speed)